This is the latest recevied weather packets stored in our database for station/object N8BAP. If no packets are shown the sender has not sent any weather packets the latest 10 day(s).
| Time | Temp. | Humidity | Pressure | Rain* | Wind** | Luminosity | Snow |
|---|---|---|---|---|---|---|---|
| 1777783359 | 1.11° C | 90% | 1023.2 hPa | 0 mm | - | 0 W/m² | - |
| 1777783056 | 1.11° C | 90% | 1023.4 hPa | 0 mm | - | 0 W/m² | - |
| 1777782748 | 1.11° C | 91% | 1023.4 hPa | 0 mm | - | 0 W/m² | - |
| 1777782444 | 0.56° C | 90% | 1023.3 hPa | 0 mm | - | 0 W/m² | - |
| 1777782141 | 0.56° C | 89% | 1023.2 hPa | 0 mm | - | 0 W/m² | - |
| 1777781837 | 0.56° C | 88% | 1023.3 hPa | 0 mm | - | 0 W/m² | - |
| 1777781535 | 0.56° C | 88% | 1023.3 hPa | 0 mm | - | 0 W/m² | - |
| 1777781232 | 1.11° C | 88% | 1023.5 hPa | 0 mm | - | 0 W/m² | - |
| 1777780929 | 1.11° C | 86% | 1023.5 hPa | 0 mm | - | 0 W/m² | - |
| 1777780626 | 1.11° C | 85% | 1023.4 hPa | 0 mm | - | 0 W/m² | - |
| 1777780323 | 1.67° C | 84% | 1023.4 hPa | 0 mm | - | 0 W/m² | - |
| 1777780021 | 1.67° C | 83% | 1023.4 hPa | 0 mm | - | 0 W/m² | - |
| 1777779717 | 2.22° C | 81% | 1023.3 hPa | 0 mm | - | 0 W/m² | - |
| 1777779415 | 2.78° C | 80% | 1023.6 hPa | 0 mm | - | 0 W/m² | - |
| 1777779112 | 3.33° C | 80% | 1023.4 hPa | 0 mm | - | 0 W/m² | - |
| 1777778810 | 2.78° C | 81% | 1023.3 hPa | 0 mm | - | 0 W/m² | - |
| 1777778509 | 2.78° C | 82% | 1023.3 hPa | 0 mm | - | 0 W/m² | - |
| 1777778206 | 2.78° C | 83% | 1023.5 hPa | 0 mm | - | 0 W/m² | - |
| 1777777904 | 2.78° C | 82% | 1023.6 hPa | 0 mm | - | 0 W/m² | - |
| 1777777599 | 2.78° C | 82% | 1023.5 hPa | 0 mm | - | 0 W/m² | - |
| 1777777296 | 2.78° C | 82% | 1023.3 hPa | 0 mm | - | 0 W/m² | - |
| 1777776993 | 3.33° C | 81% | 1023.4 hPa | 0 mm | - | 0 W/m² | - |
| 1777776691 | 3.33° C | 82% | 1023.4 hPa | 0 mm | - | 0 W/m² | - |
| 1777776387 | 3.33° C | 82% | 1023.4 hPa | 0 mm | - | 0 W/m² | - |
| 1777776084 | 3.33° C | 82% | 1023.5 hPa | 0 mm | - | 0 W/m² | - |
* Rain latest hour (hover to see other rain measurements)
** Current wind speed in m/s (hover to see current wind gust speed)